Wetbulb
41.94 37.01 34.70 38.79 41.75 42.39 42.34 41.22 40.73 43.92 47.34 46.09 45.83 47.63 49.49 51.66 52.12 52.44 53.68 54.89 56.00 57.48 59.60 60.06 60.40 62.68 63.90 65.97 66.10 67.25 65.03 65.66 66.30 67.26 67.30 67.75 67.74 67.92 68.71 69.35 70.08 70.38 70.09 69.50
37.85 34.01 38.86 41.04 41.17 40.81 40.73 39.32 40.08 43.53 45.26 45.68 46.08 46.01 49.53 49.66 50.71 52.52 53.25 54.08 55.09 56.60 57.46 58.99 59.85 61.75 63.87 64.32 65.49 66.32 65.29 65.26 66.79 67.88 68.77 69.12 68.61 67.35 68.85 69.73 70.15 70.11 69.91 69.93
35.52 37.71 40.23 38.95 38.71 38.23 38.86 38.48 39.02 39.76 42.79 44.97 43.34 42.58 45.24 48.77 50.32 51.26 52.16 52.89 53.31 54.19 54.83 57.50 58.04 60.94 62.56 63.14 64.50 64.95 65.76 66.18 67.09 68.43 68.59 68.25 68.26 68.26 67.99 68.77 68.96 69.49 69.96 69.94
37.19 40.55 37.56 37.50 36.89 39.32 35.75 41.56 40.90 39.84 39.17 36.58 43.58 35.83 44.30 47.23 47.85 49.15 50.55 51.48 52.57 53.23 54.05 55.51 57.50 59.10 61.03 62.06 62.27 63.33 66.44 67.53 67.64 68.52 68.32 68.61 68.10 67.36 68.43 68.62 69.45 69.80 70.23 69.79
35.26 36.24 35.61 35.73 37.00 40.03 37.29 41.81 41.15 40.94 39.23 38.74 39.24 35.69 41.07 45.72 44.28 46.65 49.90 50.74 51.82 53.27 54.00 54.75 55.90 57.90 58.75 60.58 60.34 65.05 67.53 68.45 68.47 68.51 69.12 68.67 68.92 68.48 68.46 68.66 69.05 69.68 69.93 70.21
36.93 41.08 38.43 38.24 40.72 40.59 42.30 39.14 38.68 39.05 38.00 31.31 37.43 36.27 38.22 41.91 44.29 46.08 48.72 49.97 50.89 51.80 52.65 53.60 55.25 56.44 57.05 59.00 64.12 67.22 68.33 68.76 68.65 68.74 68.96 69.20 68.30 67.57 67.34 67.77 67.31 66.97 67.48 68.20
35.69 36.07 39.15 39.58 36.10 38.86 38.70 36.83 29.48 28.19 28.78 28.97 38.47 35.80 38.89 44.95 45.68 46.15 47.10 48.92 50.74 52.69 53.09 54.05 54.78 55.64 57.28 61.26 65.40 67.73 68.43 68.06 68.32 68.30 68.23 68.60 68.32 68.40 67.88 67.33 66.87 66.70 66.77 67.33
28.96 28.09 36.05 39.57 37.20 35.61 36.25 36.36 31.10 24.12 27.00 30.45 37.00 32.68 38.90 45.93 47.88 48.69 48.87 50.25 51.34 52.66 54.15 54.78 55.84 56.53 57.00 61.81 65.83 67.59 68.26 67.80 68.01 68.08 67.79 68.15 68.43 67.51 67.52 67.73 67.21 67.23 67.23 67.68
29.92 30.06 39.56 40.00 39.96 39.55 34.97 32.41 38.22 31.63 33.26 31.65 34.46 38.22 42.85 45.16 45.80 47.33 47.65 50.15 51.77 53.38 55.18 58.53 60.22 57.42 58.56 63.65 66.66 67.94 68.04 67.89 67.89 67.72 67.43 67.45 67.55 67.43 66.84 67.66 68.14 67.28 67.67 67.01
35.56 28.85 36.17 37.85 41.52 40.17 38.15 39.91 31.68 33.09 25.76 25.45 32.19 34.20 37.28 42.62 44.04 46.47 46.86 48.61 50.99 55.54 58.69 60.85 60.86 59.72 62.72 65.44 67.43 68.16 68.08 67.48 67.07 67.02 66.95 66.61 67.07 67.30 67.26 67.35 66.98 67.19 67.14 66.90
38.12 33.84 33.01 37.25 34.43 34.12 36.20 34.65 35.79 35.81 34.34 29.60 29.98 34.43 43.57 44.24 45.59 45.40 46.81 48.58 50.26 54.07 58.70 60.67 60.51 60.82 63.62 66.05 67.20 67.36 67.02 66.13 65.76 66.40 66.53 66.32 66.35 66.53 67.04 67.11 66.78 66.86 66.85 66.27
38.40 35.45 29.94 31.87 38.93 39.43 38.26 35.17 35.66 31.40 30.06 33.20 32.76 33.49 45.51 45.10 45.56 46.69 47.22 48.71 50.40 53.72 58.85 60.47 59.96 60.39 63.44 65.62 66.42 66.27 66.03 65.62 65.69 66.01 66.06 66.24 66.31 66.58 66.68 66.39 66.53 66.72 66.01 65.98
38.42 33.28 27.44 29.69 35.83 38.36 35.11 36.41 36.65 36.16 36.27 32.17 29.98 33.38 44.65 45.10 46.27 47.62 47.40 48.87 49.84 52.35 57.08 60.82 59.31 60.38 61.67 65.07 65.69 65.39 65.37 64.90 65.25 65.29 65.33 65.67 65.74 66.00 66.03 66.04 66.25 66.08 65.70 65.50
41.33 34.39 30.76 26.03 29.79 34.56 32.28 34.45 36.38 35.22 31.16 32.76 33.55 36.12 40.77 43.28 44.17 46.14 47.51 49.21 50.11 51.21 55.76 60.53 59.77 60.74 62.11 64.83 64.81 64.67 64.66 64.95 64.89 65.00 64.97 65.02 65.16 65.58 66.22 66.24 65.83 65.79 65.86 65.26
38.83 31.25 33.52 33.02 34.73 34.90 34.11 33.96 35.15 33.68 34.95 31.14 34.89 35.99 40.10 43.17 44.32 46.03 47.84 48.68 49.31 49.83 52.77 58.03 60.61 60.50 63.91 64.57 64.63 64.66 64.49 64.35 64.57 63.50 64.05 64.76 65.24 65.72 65.94 65.69 64.98 65.46 65.50 65.66
39.32 31.63 33.24 30.78 33.82 33.89 31.76 34.17 34.71 35.00 35.58 35.76 36.08 35.77 42.92 44.51 45.70 45.64 46.72 47.91 48.98 50.76 52.54 56.92 61.88 63.06 63.78 64.21 64.15 64.14 63.97 63.97 64.16 63.66 63.87 64.46 64.78 65.07 65.55 65.70 65.01 65.18 65.22 65.69
35.19 33.86 31.34 26.35 31.58 31.85 28.20 33.71 35.20 36.08 38.25 37.73 33.87 39.08 43.34 42.54 44.01 45.74 47.12 48.82 49.58 50.95 52.04 57.80 61.62 63.36 64.47 64.46 64.71 64.08 64.25 64.12 63.76 63.89 64.19 64.17 64.59 64.35 64.76 64.98 64.90 64.74 65.26 65.99
33.50 32.89 32.71 27.58 29.51 20.69 33.59 41.32 40.34 37.85 40.24 42.03 42.39 43.05 43.50 43.65 45.72 47.30 50.02 50.68 51.47 52.46 53.10 58.41 62.69 64.06 64.99 65.30 65.19 65.28 64.42 63.66 63.20 63.63 63.63 64.03 64.21 64.06 64.43 64.61 64.55 64.47 65.14 64.99
36.78 33.40 29.17 25.61 25.34 29.92 33.51 36.37 35.72 34.85 34.40 41.18 42.27 43.54 43.99 45.67 46.72 47.86 51.72 52.36 54.53 55.27 56.03 61.28 64.08 64.91 65.49 65.18 65.49 64.66 63.57 63.36 63.35 63.18 63.69 63.97 64.20 63.77 64.19 64.11 64.23 63.96 64.17 63.82
36.21 36.13 30.71 28.46 24.28 22.55 32.87 38.59 40.59 38.44 30.73 41.84 41.19 44.58 45.82 47.37 42.47 45.31 52.33 55.42 55.73 59.18 61.40 62.82 64.52 65.00 65.15 65.16 65.08 64.34 63.38 63.03 63.13 63.83 64.20 64.71 64.61 64.20 64.09 64.49 63.95 64.01 64.42 63.41
33.63 32.23 28.57 28.81 27.67 31.90 37.62 40.32 39.20 30.11 33.93 39.09 40.24 40.15 44.84 44.74 47.70 51.30 53.44 53.88 56.07 58.70 61.00 64.08 64.41 64.21 64.96 65.24 64.94 63.32 63.21 62.86 64.33 64.97 64.84 64.90 65.10 64.80 65.24 64.75 64.50 64.14 63.32 61.67
32.19 31.37 30.75 31.84 28.54 26.77 40.89 39.34 32.34 39.24 40.20 40.19 40.75 44.79 45.07 47.91 50.05 50.84 52.83 54.00 56.88 58.93 61.76 63.79 63.65 64.15 64.99 65.20 64.78 63.07 62.88 64.58 64.95 64.94 64.65 64.73 65.27 64.75 64.47 64.51 64.01 63.87 63.00 60.73
32.16 35.94 32.87 32.35 33.14 40.89 42.60 40.60 42.64 43.26 40.37 41.31 41.79 45.31 46.29 46.33 48.34 51.34 52.93 55.51 58.04 60.49 62.57 63.92 63.95 63.82 63.78 64.92 65.27 63.42 64.11 64.71 64.36 64.61 64.56 64.82 64.94 64.84 64.79 64.02 62.32 60.68 61.31 59.46
38.46 41.51 37.10 37.05 39.59 40.03 41.71 43.89 43.56 44.74 43.09 44.09 45.27 46.30 46.20 46.97 48.84 51.27 53.96 57.17 58.93 61.23 62.69 63.77 63.39 62.38 62.47 64.24 64.98 64.96 65.05 64.36 64.21 64.47 64.63 64.84 64.52 64.07 64.54 63.72 62.31 61.52 59.28 59.11
39.53 39.97 38.90 37.80 40.41 40.94 42.41 43.48 44.63 43.70 44.75 46.08 46.38 46.50 47.84 49.63 49.80 52.24 54.60 57.78 59.73 61.88 62.97 63.24 62.90 62.97 62.99 63.79 64.00 64.99 64.33 64.39 63.88 64.29 64.41 64.48 64.24 64.31 61.97 61.65 60.63 61.37 61.35 59.64
41.36 38.84 36.59 35.06 41.19 40.22 41.41 44.65 46.24 44.50 43.57 45.19 46.55 48.16 50.06 49.50 49.75 53.15 55.42 60.63 61.67 61.97 62.82 61.70 62.95 63.39 63.23 63.37 63.41 63.13 64.12 64.18 64.30 63.77 64.02 64.08 64.01 63.52 61.21 58.50 57.38 42.83 46.71 47.59
MSLP
1009.69 1009.61 1007.85 1006.89 1006.96 1006.36 1004.79 1004.52 1003.78 1003.43 1003.49 1003.52 1002.68 1001.20 1001.57 1001.78 1001.40 1000.94 1000.56 1000.52 1000.50 1000.44 1000.71 1000.81 1000.80 1000.69 1000.73 1000.67 1000.71 1000.60 1000.85 1001.01 1001.40 1001.98 1002.18 1002.18 1002.34 1003.21 1003.83 1004.35 1004.89 1005.28 1005.79 1006.31
1009.42 1008.15 1007.86 1008.06 1007.35 1006.65 1005.80 1004.95 1003.95 1003.92 1003.86 1003.64 1002.49 1001.35 1001.46 1001.58 1001.03 1000.52 1000.22 1000.17 1000.21 1000.23 1000.32 1000.16 1000.18 1000.05 999.95 1000.15 1000.04 1000.01 1000.23 1000.47 1000.83 1001.06 1001.29 1001.35 1001.99 1003.07 1003.36 1004.01 1004.51 1005.00 1005.55 1006.09
1008.32 1007.44 1007.52 1007.31 1006.99 1006.24 1005.55 1005.05 1004.86 1004.29 1004.27 1003.87 1003.35 1001.55 1001.26 1000.87 1000.64 1000.28 999.99 999.97 999.93 1000.03 999.99 999.71 999.57 999.26 999.28 999.50 999.28 999.44 999.68 999.99 1000.20 1000.60 1001.04 1001.47 1002.01 1002.56 1003.17 1003.70 1004.11 1004.79 1005.33 1005.81
1007.98 1007.18 1007.07 1006.43 1005.98 1006.05 1005.06 1005.29 1005.25 1005.07 1004.67 1003.56 1003.64 1000.76 1000.10 1000.07 999.70 999.57 999.34 999.23 999.14 999.35 999.43 999.10 998.65 998.34 998.48 998.44 998.87 999.04 999.15 999.42 999.71 1000.21 1000.37 1000.68 1000.72 1001.47 1002.19 1002.89 1003.64 1004.44 1005.10 1005.57
1007.03 1006.80 1006.22 1005.68 1005.50 1005.64 1005.23 1005.31 1004.98 1005.02 1004.73 1004.48 1003.55 1002.78 999.20 999.77 998.90 998.72 998.48 998.42 998.53 998.51 998.21 997.75 997.51 997.52 997.71 997.98 998.31 998.62 998.90 999.15 999.35 999.68 999.99 1000.42 1000.87 1001.44 1002.08 1002.77 1003.65 1004.25 1004.91 1005.47
1007.80 1007.49 1006.45 1005.25 1005.03 1005.12 1005.40 1005.43 1005.41 1005.25 1004.89 1003.95 1003.24 1003.14 998.62 998.66 998.13 998.08 998.22 998.10 998.28 998.19 997.70 997.40 997.11 997.19 997.20 997.43 997.95 998.30 998.54 998.89 999.26 999.55 1000.00 1000.42 1000.92 1001.35 1002.07 1002.89 1003.55 1004.14 1004.84 1005.47
1007.42 1006.91 1006.31 1005.91 1005.12 1005.15 1005.06 1004.88 1005.15 1005.09 1004.26 1002.77 1002.93 1002.56 999.07 997.88 997.90 998.11 998.07 998.21 998.28 997.51 996.98 996.71 996.51 996.46 996.45 996.76 997.37 997.87 998.18 998.64 999.18 999.75 1000.25 1000.58 1001.02 1001.35 1002.11 1002.80 1003.33 1004.07 1004.64 1005.17
1008.05 1006.52 1006.28 1005.69 1005.10 1004.46 1004.54 1004.49 1003.56 1003.03 1002.70 1002.60 1003.03 1000.65 998.22 998.29 997.80 997.94 998.08 998.05 997.90 997.34 996.68 996.44 996.19 995.97 995.99 996.51 997.12 997.53 997.83 998.61 999.31 999.93 1000.49 1000.90 1001.31 1001.78 1002.40 1002.86 1003.42 1003.97 1004.46 1005.06
1008.98 1007.41 1006.82 1005.75 1005.10 1004.71 1004.43 1004.28 1004.06 1003.50 1003.28 1002.21 1001.37 999.63 998.53 998.25 997.78 997.60 997.94 997.86 997.49 997.14 996.50 996.18 995.87 995.69 995.80 996.29 996.88 997.26 997.85 998.73 999.38 1000.02 1000.57 1001.12 1001.70 1002.19 1002.69 1003.37 1003.86 1004.22 1004.78 1005.28
1009.28 1008.25 1007.43 1006.40 1005.41 1004.72 1004.42 1004.02 1004.31 1003.84 1002.59 1001.51 1000.25 999.30 997.67 997.57 997.82 997.61 998.01 998.19 997.84 997.27 996.51 996.32 996.19 995.94 996.00 996.40 996.89 997.49 998.11 998.73 999.51 1000.06 1000.75 1001.38 1001.98 1002.44 1003.06 1003.63 1003.99 1004.48 1005.00 1005.39
1009.74 1008.79 1007.73 1006.90 1006.23 1005.23 1004.90 1004.37 1004.09 1003.64 1002.86 1001.20 999.81 998.24 997.90 997.63 998.15 998.60 998.70 998.67 997.92 997.27 996.93 996.89 997.11 997.06 996.70 996.73 997.10 997.71 998.43 999.12 999.71 1000.21 1001.06 1001.71 1002.18 1002.63 1003.24 1003.71 1004.27 1004.67 1005.11 1005.45
1010.11 1009.54 1008.07 1007.03 1006.22 1006.38 1005.89 1005.44 1004.99 1003.67 1003.05 1002.28 1001.14 999.22 998.50 998.49 998.69 998.93 998.81 998.26 997.74 997.44 997.13 997.37 997.59 997.61 997.29 997.19 997.57 998.06 998.69 999.28 999.84 1000.45 1001.23 1001.99 1002.53 1002.97 1003.42 1003.87 1004.41 1004.78 1005.06 1005.58
1010.61 1009.84 1008.54 1006.91 1006.87 1006.65 1006.20 1006.00 1005.56 1005.07 1004.43 1002.42 1001.38 999.02 998.81 998.69 998.43 998.75 998.68 998.19 997.56 997.44 997.16 997.46 997.96 997.99 997.91 997.73 997.96 998.39 998.91 999.50 1000.11 1000.72 1001.46 1002.28 1002.83 1003.29 1003.63 1003.98 1004.45 1004.80 1005.27 1005.71
1010.83 1010.33 1009.61 1008.58 1007.93 1007.83 1006.99 1006.47 1006.12 1005.70 1004.34 1002.94 1001.11 1000.72 999.03 998.94 998.92 998.61 998.70 998.32 997.73 997.48 997.24 997.67 998.05 998.20 998.18 998.03 998.24 998.71 999.18 999.79 1000.35 1000.91 1001.61 1002.32 1002.96 1003.38 1003.75 1004.09 1004.53 1004.97 1005.40 1005.67
1010.81 1009.87 1009.52 1009.26 1008.71 1008.06 1007.20 1006.55 1006.06 1005.39 1004.46 1003.74 1002.02 1001.42 1000.13 999.67 1000.13 999.72 998.93 998.29 997.61 997.01 996.80 996.88 997.65 998.00 997.90 998.10 998.48 998.98 999.50 1000.09 1000.58 1001.01 1001.67 1002.40 1003.10 1003.52 1003.86 1004.23 1004.68 1005.15 1005.51 1005.66
1010.59 1009.81 1009.68 1008.99 1008.23 1007.54 1006.80 1006.14 1005.58 1004.66 1004.39 1003.16 1002.64 1001.68 1001.94 999.99 1000.28 999.43 998.75 998.19 997.44 996.83 996.56 996.42 996.95 997.45 997.55 997.97 998.44 999.10 999.58 1000.29 1000.72 1001.07 1001.68 1002.50 1003.07 1003.59 1003.99 1004.40 1004.77 1005.19 1005.43 1005.59
1011.01 1010.24 1009.48 1008.44 1008.16 1007.37 1006.06 1004.69 1004.29 1004.02 1003.68 1002.90 1001.84 1001.61 1001.48 1000.03 998.65 998.98 998.48 998.19 997.71 997.16 996.52 996.07 996.35 996.77 997.20 997.74 998.35 999.00 999.57 1000.28 1000.77 1001.20 1001.85 1002.46 1003.09 1003.54 1004.06 1004.51 1004.87 1005.18 1005.31 1005.48
1010.85 1010.49 1009.88 1008.78 1008.52 1007.00 1004.90 1004.82 1004.75 1004.77 1003.70 1002.82 1001.74 1001.22 1000.72 999.61 998.76 998.77 998.61 998.13 997.49 996.89 996.10 995.77 995.84 996.31 996.98 997.61 998.26 998.98 999.67 1000.15 1000.68 1001.25 1001.80 1002.46 1003.01 1003.51 1004.13 1004.59 1004.92 1005.32 1005.41 1005.60
1010.21 1010.35 1009.87 1009.02 1008.04 1006.50 1005.35 1006.17 1006.32 1005.98 1003.91 1003.54 1002.06 1000.83 1000.12 999.51 999.08 997.83 998.15 997.48 996.76 996.05 995.50 995.33 995.46 996.05 996.79 997.43 998.02 998.85 999.56 1000.08 1000.65 1001.21 1001.73 1002.37 1002.92 1003.53 1004.08 1004.53 1004.97 1005.42 1005.71 1006.15
1009.58 1009.67 1009.65 1008.87 1007.96 1006.58 1006.05 1006.04 1006.48 1006.43 1004.22 1003.33 1002.99 1001.49 1000.19 999.68 999.05 996.59 997.22 997.52 996.75 995.86 995.14 995.02 995.25 995.87 996.53 997.18 997.97 998.64 999.38 999.98 1000.52 1001.09 1001.62 1002.27 1002.88 1003.50 1003.97 1004.49 1005.11 1005.62 1005.92 1006.36
1009.07 1009.15 1008.89 1008.20 1007.49 1006.38 1006.19 1006.21 1006.55 1006.21 1005.10 1004.06 1003.59 1002.78 1001.32 1000.18 999.19 997.79 997.82 997.12 996.56 995.75 995.05 994.68 995.10 995.58 996.16 996.82 997.71 998.41 999.21 999.80 1000.36 1001.04 1001.63 1002.31 1002.97 1003.50 1004.04 1004.63 1005.33 1005.74 1006.19 1006.70
1008.85 1008.42 1008.00 1007.47 1006.89 1006.07 1006.16 1006.20 1006.43 1005.16 1004.71 1004.54 1003.53 1002.41 1001.51 1000.45 999.37 998.40 997.62 996.73 995.74 994.93 994.36 994.37 994.90 995.46 996.13 996.71 997.41 998.18 999.00 999.70 1000.39 1001.06 1001.62 1002.25 1002.94 1003.44 1004.09 1004.72 1005.41 1005.84 1006.35 1006.83
1008.34 1007.97 1007.99 1007.76 1006.82 1005.94 1005.56 1005.45 1005.14 1004.68 1004.22 1003.68 1003.08 1001.96 1001.25 1000.19 999.23 998.18 997.14 996.17 995.11 994.33 993.99 994.14 994.64 995.37 996.10 996.58 997.18 997.98 998.75 999.68 1000.37 1000.99 1001.59 1002.28 1002.87 1003.47 1004.13 1004.82 1005.60 1006.13 1006.46 1006.90
1007.71 1007.27 1007.06 1006.38 1005.44 1005.27 1004.76 1004.28 1004.22 1003.70 1003.35 1002.79 1002.18 1001.40 1000.76 999.67 998.67 997.52 996.49 995.27 994.51 993.97 993.81 994.22 994.64 995.18 995.78 996.35 997.06 997.68 998.70 999.59 1000.22 1000.83 1001.57 1002.24 1002.71 1003.47 1004.20 1005.06 1005.73 1006.01 1006.55 1006.81
1007.51 1007.02 1006.10 1005.49 1004.60 1004.43 1003.88 1003.59 1003.36 1003.09 1002.55 1001.67 1001.22 1000.73 999.91 998.96 997.96 996.88 995.68 994.70 994.07 993.66 993.71 994.12 994.35 994.76 995.26 996.09 996.96 997.65 998.63 999.42 1000.05 1000.71 1001.44 1002.05 1002.72 1003.39 1004.54 1005.37 1006.06 1005.92 1006.31 1006.40
1006.94 1006.51 1006.03 1005.31 1004.78 1004.40 1003.44 1002.77 1002.34 1002.27 1001.74 1001.03 1000.21 999.25 998.60 998.00 996.86 996.04 995.19 994.29 993.62 993.29 993.62 994.16 994.25 994.60 995.14 995.93 996.70 997.61 998.35 999.13 999.84 1000.49 1001.21 1001.79 1002.54 1003.52 1004.57 1005.57 1006.30 1006.55 1006.60 1006.79
Wind_Speed
6 9 20 24 24 23 16 20 21 19 13 16 25 31 26 19 21 22 20 20 19 19 16 14 12 11 12 11 9 8 8 4 6 6 7 7 8 7 7 7 11 12 11 12
6 17 18 16 17 23 22 14 14 8 6 11 19 25 22 13 17 20 21 22 20 19 17 15 13 13 12 11 11 9 8 6 8 7 5 3 6 6 7 7 8 9 11 12
17 14 9 17 19 19 24 22 10 5 3 9 9 20 21 18 19 20 20 20 19 20 19 17 17 16 13 13 12 9 8 8 9 10 7 6 7 6 6 7 7 8 10 11
14 14 15 12 21 18 19 17 18 14 7 9 5 14 17 16 18 17 18 19 20 17 18 19 19 19 16 15 9 9 7 7 10 13 10 11 6 8 5 7 7 8 10 10
12 10 16 19 12 16 13 10 15 17 16 12 18 10 16 15 20 23 22 20 20 21 22 23 22 19 17 13 10 7 6 8 10 12 10 9 8 6 8 7 10 8 8 8
15 9 5 7 17 12 18 11 5 5 7 13 17 12 16 19 20 19 19 18 16 16 17 19 19 16 15 10 7 6 8 9 10 10 11 11 12 11 10 10 9 7 6 6
12 17 9 8 5 5 9 19 9 11 11 16 9 13 18 7 4 7 3 6 12 14 11 12 13 12 12 10 7 7 10 10 10 10 10 11 12 13 13 12 9 9 7 5
7 10 7 11 14 12 13 13 10 15 11 13 11 14 8 13 15 12 8 6 9 12 11 12 13 12 9 8 9 10 12 12 12 11 11 10 11 8 8 9 8 6 6 6
5 3 15 3 1 12 8 10 6 3 1 7 11 16 16 17 17 16 4 8 13 16 15 15 15 10 8 9 11 13 14 13 13 13 11 10 9 10 9 9 8 7 7 6
4 5 6 13 8 7 6 8 10 6 7 8 9 16 9 7 6 2 2 12 16 18 17 16 12 5 6 10 12 13 14 15 14 13 11 10 10 10 10 9 9 8 7 7
7 4 3 5 3 3 5 6 7 7 9 5 3 4 3 7 10 9 9 12 15 18 17 14 10 3 6 11 13 14 14 15 14 13 11 11 10 10 10 8 8 8 8 8
6 5 5 5 5 3 7 3 5 9 19 11 7 6 5 11 9 10 13 17 19 17 15 11 7 1 6 11 13 14 14 14 14 13 13 11 10 9 9 8 8 8 8 8
8 2 6 2 6 4 1 2 6 6 5 15 15 8 9 4 10 14 18 20 20 17 16 9 4 2 7 11 13 13 14 15 14 13 13 11 10 9 8 8 8 8 9 8
10 5 9 8 7 7 8 8 7 6 9 14 21 20 25 21 22 22 21 20 20 17 15 8 1 4 8 11 12 13 14 14 14 13 13 11 10 8 7 8 8 8 8 8
5 8 10 12 14 14 16 17 16 16 17 15 16 20 23 21 18 20 22 20 21 20 15 12 5 7 10 11 12 13 14 13 13 13 12 10 9 8 8 8 8 7 8 7
5 5 3 10 15 17 18 19 19 22 19 24 24 25 20 27 24 25 23 21 20 18 17 16 8 11 13 13 13 14 14 13 13 12 11 10 9 8 8 7 8 8 8 7
4 5 4 6 4 9 12 18 22 19 17 18 22 19 18 25 25 21 21 18 19 18 19 17 9 13 13 14 14 15 14 13 12 11 10 10 9 9 8 8 9 8 7 7
4 6 5 5 5 6 4 5 5 11 19 17 18 20 22 24 24 21 17 20 21 20 20 16 9 13 14 15 15 14 14 13 12 11 10 10 9 9 8 8 8 7 5 6
15 6 3 4 6 10 13 5 5 5 13 16 18 13 18 19 19 23 21 20 21 22 18 13 9 13 15 16 16 15 14 13 12 10 10 10 10 10 9 9 8 6 7 7
8 11 6 4 5 5 3 3 5 9 10 6 14 10 12 12 11 17 10 12 17 16 13 11 11 14 16 16 16 16 15 14 12 11 10 10 10 10 9 9 8 6 6 6
1 3 10 9 6 5 0 5 4 6 5 16 13 16 14 11 12 15 17 21 19 17 16 10 13 15 16 17 17 16 15 14 12 10 10 10 10 9 9 9 7 7 6 6
3 5 2 3 6 1 3 9 4 6 10 14 16 11 12 13 15 15 17 18 19 16 11 14 13 14 15 17 17 16 15 13 11 10 11 10 10 8 8 9 7 7 7 7
3 3 4 3 4 13 13 14 10 15 15 15 16 15 13 17 15 15 15 16 14 12 10 13 14 15 15 16 16 16 14 12 12 11 11 11 10 8 9 9 8 6 7 6
4 6 4 10 3 11 19 6 12 12 12 14 14 14 15 14 15 16 15 12 10 10 12 12 15 16 16 15 16 15 13 12 12 12 11 10 10 9 8 6 6 6 6 6
5 7 11 8 10 17 6 12 10 9 13 11 12 13 14 13 14 13 12 11 10 11 12 14 15 16 17 16 14 14 14 13 12 12 11 10 8 8 8 6 4 5 5 4
3 5 5 7 16 11 14 15 14 9 13 14 14 15 12 10 12 13 9 8 8 13 13 12 14 15 16 16 15 14 14 14 13 12 10 9 9 8 7 7 4 9 5 6
Wind_Direction
190 220 224 225 228 245 263 248 242 248 228 212 223 242 245 239 254 258 261 267 269 272 278 283 279 271 267 265 266 260 294 269 188 185 188 195 194 186 190 191 196 193 196 196
213 233 247 255 254 237 241 252 249 230 226 229 238 248 249 244 251 254 259 263 269 275 276 278 277 274 270 272 267 274 269 244 204 202 187 166 153 181 181 190 189 187 188 190
242 257 244 233 245 232 229 233 215 223 238 250 275 260 251 245 249 254 254 260 264 262 272 273 273 269 272 264 266 277 270 231 204 193 159 125 123 115 164 180 171 181 186 183
246 241 236 254 225 236 234 223 228 239 260 232 201 269 244 242 252 249 256 256 259 264 258 259 261 264 257 266 276 276 266 215 194 183 180 173 172 157 173 169 161 164 175 176
229 246 224 219 235 214 248 204 206 213 229 251 240 268 260 251 257 256 257 265 271 265 262 259 262 262 266 266 271 261 222 194 178 179 181 172 166 137 140 144 146 150 155 163
269 265 291 255 216 211 212 228 252 234 225 233 233 238 268 253 257 259 260 264 270 278 269 262 263 265 258 256 245 207 181 166 164 165 166 167 152 138 135 142 142 142 143 151
233 229 245 257 241 166 181 186 194 217 214 237 201 217 243 246 288 236 258 310 293 296 275 272 273 262 254 227 209 178 163 150 153 156 157 151 140 141 145 152 151 152 147 154
292 219 226 206 231 209 199 203 207 218 207 226 202 227 241 237 267 277 285 300 300 316 313 298 293 278 254 211 179 168 152 144 151 150 142 135 135 141 147 146 147 144 151 154
338 324 324 115 228 205 164 204 227 277 68 219 193 249 280 262 274 270 259 10 352 339 334 327 316 285 237 181 168 159 148 145 146 141 134 134 135 142 138 136 138 140 140 144
329 291 145 306 315 184 233 183 193 205 201 211 210 244 236 117 80 332 124 11 353 348 347 344 339 311 180 159 152 151 148 144 140 134 134 134 139 136 133 137 135 143 143 150
327 290 170 250 196 340 192 215 224 249 237 248 242 201 231 237 99 57 31 4 354 352 352 352 345 347 161 148 147 145 141 139 136 133 131 133 131 129 130 131 140 141 145 147
347 307 284 263 293 298 286 292 283 234 217 237 285 279 108 112 80 23 356 351 354 353 355 351 341 353 153 149 146 144 140 138 133 130 130 130 133 134 133 136 141 147 143 146
358 351 308 287 152 99 213 203 247 255 283 246 236 220 182 250 305 339 341 340 344 345 350 358 339 185 155 151 148 144 143 139 136 136 135 138 139 141 141 140 143 147 143 151
301 247 255 274 330 330 294 290 279 270 254 251 243 259 268 285 303 319 324 332 330 329 339 336 236 183 166 155 148 147 144 143 143 141 144 145 146 146 145 142 147 152 157 159
255 246 234 259 271 276 272 273 271 253 253 254 265 258 271 283 302 305 309 314 316 317 320 332 242 191 171 161 154 152 150 150 149 146 148 145 143 140 140 143 152 154 161 158
244 270 241 257 265 264 267 261 256 254 255 255 259 261 268 283 283 283 288 302 308 309 312 317 228 199 179 170 163 158 154 154 155 150 146 143 142 145 149 155 160 159 163 157
248 234 221 262 314 311 267 248 244 253 260 262 261 267 258 263 268 270 283 290 294 298 301 305 235 200 184 172 167 166 158 156 160 158 151 149 150 150 154 158 160 157 172 144
234 224 240 279 303 250 65 32 317 306 282 279 279 255 252 251 261 271 276 280 283 283 286 299 225 198 182 172 169 162 158 161 161 161 157 154 158 152 159 157 150 151 159 154
213 206 239 242 221 282 286 32 341 311 283 281 278 260 240 251 269 268 262 270 280 271 271 280 215 190 175 172 163 163 164 164 165 167 164 163 158 159 160 154 140 143 147 141
223 223 211 207 251 256 160 270 3 299 270 27 346 289 241 239 246 263 288 309 306 296 279 256 193 181 172 170 164 163 168 171 177 180 172 165 164 164 161 138 135 150 148 139
15 157 228 242 253 263 168 333 337 237 358 325 318 302 279 259 248 283 303 296 293 287 283 213 180 180 174 163 162 166 168 178 183 179 167 163 168 163 147 134 145 151 142 129
311 320 267 225 234 308 284 297 227 308 301 292 297 282 295 282 282 286 286 283 283 280 258 187 181 179 168 164 165 166 173 179 176 171 168 162 161 157 145 141 144 146 143 139
318 326 299 220 279 277 297 276 262 274 263 278 289 294 303 291 289 284 279 277 276 257 219 188 180 166 167 166 169 171 177 170 171 172 163 159 156 146 143 141 145 144 151 143
265 282 269 311 278 316 304 271 264 281 261 277 276 287 292 290 283 281 276 274 269 240 195 180 172 166 163 165 173 177 168 171 168 170 160 157 153 144 142 140 160 151 151 155
275 309 314 287 296 321 273 302 315 323 298 294 286 280 279 274 275 275 275 271 258 207 177 178 176 170 162 165 172 167 170 167 170 165 161 160 143 149 139 141 158 159 170 158
249 325 318 313 315 307 296 311 317 313 308 304 306 310 310 302 299 283 269 256 234 189 168 176 175 169 161 168 169 168 169 169 165 163 166 163 155 146 147 148 135 37 32 116